Showing default

OPS 8464 (TRANSIT 5B-7), 1514

Orbit data source: Space-Track

OPS 8464 (TRANSIT 5B-7), 1514 is a payload satellite owned by USN BuWeps (US) in LEO that was launched on Fri, 13 Aug 1965 UTC via a THOR ABLESTAR launch vehicle from the Air Force Western Test Range (AFWTR). Payload-class satellites include a variety of spacecraft equipped with specific instruments for various scientific and technological missions. These include communications satellites like Starlink; space stations such as the ISS; scientific satellites like the Hubble; Earth observation satellites from companies like Planet Labs, Umbra, and HawkEye 360; GPS; miniature CubeSats for education and research; and military/defense satellites.

Loading next visibility...
Identifier
1514, 1965-065F
Orbit
LEO
Country
Flag of USUS
Related business
Manufacturer
NAFI
Mission
Spacecraft
Bus & Motor
TRANSIT 5, Unknown motor
Mass
~54 kg wet, ~54 kg dry
Launch date (UTC)
1965-08-13 (61 years ago)
Launch vehicle
THOR ABLESTAR
Launch site
Air Force Western Test Range (AFWTR)
Object type
Payload
Rocket body
Debris
Shape & HBR
OCT CYL + 4 PAN + ANT, 15.0 m
Radar Cross Section
Large (>1 m²)

Expand to show TLE details & history
Last TLE update: 18 hours ago

TLE from 18 hours ago
0 OPS 8464 (TRANSIT 5B-7)
1 01514U 65065F   26207.58896068  .00000084  00000-0  14496-3 0  9999
2 01514  89.9948 227.8883 0071628  50.8826  69.8292 13.35375342966521
Epoch: 2026-07-26T14:08Z
TLE epoch observation values (Epoch: 2026-07-26T14:08:06.202Z)
Latitude
58.60638°
Longitude
-108.43074°
Altitude
1,118.336 km
Speed
7.308 km/s
True Right ascension
03h 11m 31s
True Declination
58° 27' 38"
Sunlit
Object was in daylight at epoch
Visualization orbit readout
Latitude
Unknown
Longitude
Unknown
Altitude
Unknown
Speed
Unknown
Apparent Right ascension
Unknown
Apparent Declination
Unknown
Sunlit
N/A
Visualization observer readout
Local Sidereal Time
21:10:29
Azimuth
Unknown
Elevation
Unknown
Doppler factor
Unknown
Orbital elements
Apogee altitude
1,177.361 km
Perigee altitude
1,069.893 km
Semi-major axis
7,501.764 km
Eccentricity
0.00716
Inclination
89.9948°
RAAN
227.8883°
Arg. of periapsis
50.8826°
True anomaly
70.60202°
Mean anomaly
69.8292°
Eccentric anomaly
70.21537°
Mean motion
3.3404 °/min
Orbital period
107.77 mins
BSTAR
0.00014496
Loading maneuver chart data...
Computing Atmospheric mass density...
Loading historical data...
Loading historical data...
Loading historical data...
Loading historical data...
Loading historical data...
Loading historical data...
Loading historical data...

Documentation

Showing up to 5 results
|